Regional Weather Roundup
Issued by NWS

Home | Current Version | Previous Version | Text Only | Print | Product List | Glossary Off
Versions: 1 2 3 4 5 6 7 8 9 10 11 12 13 14 15 16 17 18 19 20 21 22 23 24 25 26 27 28 29 30 31 32 33 34 35 36 37 38 39 40 41 42 43 44 45 46 47 48 49 50

000
ASUS43 KLOT 010600
RWRIL

ILLINOIS REGIONAL WEATHER ROUNDUP
NATIONAL WEATHER SERVICE CHICAGO/ROMEOVILLE IL
100 AM CDT FRI AUG 01 2014

NOTE: "FAIR" INDICATES FEW OR NO CLOUDS BELOW 12,000 FEET WITH NO
SIGNIFICANT WEATHER AND/OR OBSTRUCTIONS TO VISIBILITY.

* THESE STATIONS ARE NOT UNDER NWS QUALITY CONTROL. THEY ALSO MAY NOT
  REPORT WEATHER SUCH AS PRECIPITATION OR FOG.

ILZ001-002-007-009-015-016-024-010700-
NORTHWEST ILLINOIS

CITY           SKY/WX    TMP DP  RH WIND       PRES   REMARKS
MOLINE         PTCLDY    64  61  90 CALM      30.05S
6HR MIN TEMP:  62; 6HR MAX TEMP:  79;

STERLING*      CLEAR     61  57  88 CALM      30.05F
$$

ILZ003-004-008-010-011-017-018-010700-
NORTH CENTRAL ILLINOIS

CITY           SKY/WX    TMP DP  RH WIND       PRES   REMARKS
ROCKFORD       CLEAR     62  58  86 S3        30.06S
6HR MIN TEMP:  62; 6HR MAX TEMP:  77;

$$

ILZ005-006-012>014-019>023-010700-
NORTHEAST ILLINOIS

CITY           SKY/WX    TMP DP  RH WIND       PRES   REMARKS
CHICAGO-OHARE  CLEAR     67  57  70 SW5       30.04S
6HR MIN TEMP:  67; 6HR MAX TEMP:  80;

CHICAGO-MIDWAY CLEAR     72  62  71 SW6       30.05R
6HR MIN TEMP:  72; 6HR MAX TEMP:  82;

AURORA         CLEAR     61  57  87 CALM      30.06S
6HR MIN TEMP:  60; 6HR MAX TEMP:  77;

WAUKEGAN       CLEAR     66  57  72 CALM      30.03F
6HR MIN TEMP:  64; 6HR MAX TEMP:  78;

DUPAGE AIRPORT CLEAR     63  59  87 S3        30.05S
6HR MIN TEMP:  63; 6HR MAX TEMP:  79;

WHEELING       CLEAR     67  58  72 CALM      30.06S
6HR MIN TEMP:  67; 6HR MAX TEMP:  80;

NORTHERLY ISL    N/A     73  60  63 SW2         N/A
$$

LMZ740>746-010700-
SOUTHERN LAKE MICHIGAN

STATION/POSITION SKY/WX   TEMP    WIND        PRES    VSBY  WAVE
                          AIR SEA DIR/SP/G                  HT/PER
                          (F)     (DEG/KT/KT) (MB)    (MI)  (FT/S)
SOUTHERN BUOY              66 63  230/  8/  8 1016.8R         0
WAUKEGAN HARBOR            70     260/  9/ 11   N/A
HARRISON CRIB              74     230/  5/  6   N/A
BURNHAM HARBOR             73     230/  4/  6   N/A
CALUMET HARBOR             71     220/  2/  3 1016.4R
MICHIGAN CITY              71     190/  7/  8   N/A
MICHIGAN CITY 6N           71 70  210/  6/  8   N/A           1
ST. JOSEPH                 70 69  160/  6/  8   N/A           1
$$

ILZ025>027-034>036-040-047-049-050-058-095>099-010700-
WEST-CENTRAL ILLINOIS

CITY           SKY/WX    TMP DP  RH WIND       PRES   REMARKS
QUINCY         CLEAR     67  60  78 CALM      30.07R
$$

ILZ028>032-037-038-041>044-048-051>054-059>061-010700-
CENTRAL ILLINOIS

CITY           SKY/WX    TMP DP  RH WIND       PRES   REMARKS
DECATUR        CLEAR     61  58  90 CALM      30.08S
PEORIA         PTCLDY    67  61  81 CALM      30.06F
6HR MIN TEMP:  66; 6HR MAX TEMP:  80;

SPRINGFIELD    CLEAR     63  60  90 CALM      30.07S
6HR MIN TEMP:  63; 6HR MAX TEMP:  82;

TAYLORVILLE    NOT AVBL
$$

ILZ033-039-045-046-055>057-062-063-010700-
EAST-CENTRAL ILLINOIS

CITY           SKY/WX    TMP DP  RH WIND       PRES   REMARKS
CHAMPAIGN      CLEAR     63  60  90 S6        30.08S
MATTOON        CLEAR     67  62  84 S5        30.07F
$$

ILZ079-100>102-010700-
SOUTHWEST ILLINOIS

CITY           SKY/WX    TMP DP  RH WIND       PRES   REMARKS
BELLEVILLE     CLEAR     66  66 100 CALM      30.06F FOG
CAHOKIA*       CLEAR     67  63  87 S5        30.07S
$$

ILZ064>066-069>071-074>076-080>082-084>086-088>090-092>094-010700-
SOUTH-CENTRAL ILLINOIS

CITY           SKY/WX    TMP DP  RH WIND       PRES   REMARKS
CARBONDALE     CLEAR     64  62  93 CALM      30.07F
6HR MIN TEMP:  63; 6HR MAX TEMP:  77;

MT. VERNON     CLEAR     61  55  82 CALM      30.08F
$$

ILZ067-068-072-073-078-083-087-091-010700-
SOUTHEAST ILLINOIS

CITY           SKY/WX    TMP DP  RH WIND       PRES   REMARKS
LAWRENCEVILLE  PTCLDY    64  62  93 CALM      30.08F
$$

ABBREVIATIONS USED IN REMARKS
   TC - TEMPERATURE IN CELSIUS
  WCI - WIND CHILL INDEX
   HX - HEAT INDEX
  VSB - VISIBILITY
$$



USA.gov is the U.S. government's official web portal to all federal, state and local government web resources and services.